Find Feng Yun 4B

NORAD ID: 48808 Int'l Des: 2021-047 Owner: NSMC Country: CN operational
HEOCIRCULARGSO

Live-Position

3D-Globus wird geladen...

Über Feng Yun 4B

Beschreibung wird geladen...

Nächste Überflüge

Passes for default location (London). Set your location on the main map for personalized predictions.

Höhenverlauf

Loading altitude history...

Zweizeiliger Elementsatz

1 48808U 21047A 26104.46479266 -.00000326 00000-0 00000+0 0 9990
2 48808 0.0373 323.7410 0005339 48.8533 102.0124 1.00275567 17948
Epoch: 14. Apr. 2026 • Age: 7 hours

Aktueller Status

Höhe 35804.7 km
Geschwindigkeit 3.07 km/s
Subsatellitenpunkt -0.02°S, 104.61°E
Startdatum 2. Juni 2021
Alter 4.8 years
Typ other

Technische Details

Klassifizierung Payload
Masse 5380.00 kg
Trockenmasse 3000.00 kg
Gesamtmasse 5380.00 kg
Länge 4.20 m
Durchmesser 3.30 m
Spannweite 10.00 m
Form Box + panel
Hersteller SISE
Bus-Typ FY-4
Phasenstatus In Orbit
Besitzer/Staat NSMC/CN

Most Searched